全球卫星定位系统 GPS 74星 (NAVSTAR 74 (USA 262))

导读

NAVSTAR 74(USA 262)是美国太空军运营的GPS导航卫星,于2015年7月15日发射升空,由美国波音公司制造。作为GPS现代化进程中的重要卫星,它运行在中地球轨道,设计寿命12年,旨在逐步替换老旧的GPS II系列卫星,为全球用户提供更精准的定位、导航与授时服务,同时增强了抗干扰能力,提升了GPS系统整体的稳定性与可靠性,目前仍在轨正常运行。

基本信息
目录编号:
40730
目录名称:
NAVSTAR 74 (USA 262)
国际标识:
2015-033A
轨道中心:
EARTH
卫星名称:
GPS 74星
卫星全名:
全球卫星定位系统 GPS 74星 (NAVSTAR 74 (USA 262))
卫星状态:
在轨 (已飞行3994 天)
发射日期:
2015-07-15 UTC
国别 :
美国 (US)
星等 :
--
轨道信息
数据来源 国际轨道数据 AOE轨道数据
星历时间 2026-06-20T13:06:10+0800
1天前
查看轨道信息
2026-06-21T01:00:00+0800
16小时前
查看轨道信息
半长轴 26561.011km 26561.002km
偏心率 0.0115099 0.0115226
轨道倾角 53.980° 53.980°
近地点辐角 30.240° 30.210°
升交点赤经 266.962° 266.941°
平近点角 330.459° 328.410°
近地点 19877.159km 19876.813km
远地点 20488.589km 20488.917km
周期 718.004分钟 718.003分钟
每日圈数 2.005561 2.005562
详细信息
平衡模式:
三轴稳定
覆盖范围:
全球
运营商:
美国太空军
运营商所在国:
美国
制造商(研发单位):
波音公司
制造商所在国:
美国
使用方式:
暂无
工作目标:
提供军用及民用全球定位与导航服务
预期寿命:
12年
卫星简介
全球定位系统(英语:Global Positioning System,通常简称GPS),又称全球卫星定位系统,是美国国防部研制,美国太空军运营与维护的中地球轨道卫星导航系统。它可以为地球表面约98%的地区提供准确的定位、测速和高精度的标准时间。全球定位系统可满足位于全球地面任何一处或近地空间的军事用户连续且精确地确定三维位置、三维运动和时间的需求。该系统包括太空中的31颗GPS人造卫星.该卫星仍在工作。
2D轨道图
3D轨道图
轨道高度分析图
轨道倾角分析图
轨道综合分析图
查看轨道综合分析图